Location: Colonia Mina de C?rbuni
(46.1667°N, 22.7167°E)
Time: 15:39:28
(UTC+00:00)

Vanguard 1 Rocket - Pass Details

Date: 18 April 2024
Orbit: 650 x 4220 km, 34.3° (Epoch: 22 May)

Event Time Altitude Azimuth Distance (km) Brightness Sun altitude
Rises 18:56:22 0° 245° (WSW) 3,427 10.8 -15.6°
Reaches altitude 10° 18:58:35 10° 236° (SW) 2,717 10.1 -15.9°
Maximum altitude 19:04:31 37° 170° (S) 2,002 8.7 -16.7°
Enters shadow 19:09:53 23° 122° (ESE) 3,211 9.5 -17.5°
